Precipitable_Water
0.23 0.14 0.14 0.13 0.14 0.17 0.17 0.19 0.20 0.18 0.19 0.21 0.19 0.18 0.20 0.21 0.21 0.21 0.21 0.21 0.21 0.20 0.19 0.17 0.15 0.13 0.13 0.15 0.15 0.16 0.21 0.23 0.27 0.47 0.42 0.50 0.52 0.56 0.74 0.83 0.81 0.84 0.87 1.02 1.06 0.96 1.02 1.06 1.11 1.13 1.12 1.10 1.18 1.25 1.31 1.36 1.38 1.43 1.49 1.53 1.51 1.57 1.62 1.57 1.52 1.47 1.44 1.38 1.40 1.43 1.44 1.47 1.53 1.53 1.53 1.48 1.48 1.48 1.53 1.53 1.55 1.56 1.58 1.56 1.50 1.51
0.21 0.15 0.14 0.14 0.13 0.17 0.20 0.19 0.20 0.20 0.21 0.20 0.21 0.19 0.21 0.19 0.19 0.20 0.21 0.22 0.21 0.19 0.18 0.17 0.14 0.14 0.14 0.15 0.17 0.17 0.17 0.17 0.21 0.42 0.44 0.55 0.49 0.56 0.71 0.74 0.75 0.83 0.91 0.93 0.94 0.96 1.03 1.05 1.02 1.05 1.08 1.07 1.04 1.14 1.23 1.28 1.33 1.37 1.47 1.51 1.52 1.58 1.58 1.58 1.51 1.48 1.45 1.46 1.44 1.41 1.44 1.50 1.49 1.47 1.44 1.44 1.47 1.48 1.53 1.54 1.50 1.53 1.53 1.50 1.46 1.45
0.17 0.14 0.14 0.15 0.18 0.17 0.19 0.21 0.19 0.18 0.21 0.23 0.22 0.22 0.21 0.21 0.20 0.20 0.19 0.20 0.19 0.20 0.20 0.19 0.17 0.16 0.15 0.15 0.15 0.16 0.17 0.19 0.20 0.26 0.49 0.45 0.50 0.51 0.60 0.64 0.70 0.76 0.79 0.84 0.90 0.96 1.02 0.99 0.96 0.97 1.02 1.02 1.03 1.09 1.16 1.25 1.30 1.35 1.43 1.48 1.48 1.56 1.55 1.54 1.56 1.50 1.48 1.50 1.53 1.51 1.51 1.48 1.46 1.54 1.50 1.52 1.50 1.48 1.48 1.48 1.48 1.49 1.49 1.41 1.36 1.49
0.18 0.15 0.15 0.15 0.18 0.18 0.17 0.19 0.22 0.22 0.21 0.22 0.24 0.21 0.21 0.20 0.17 0.15 0.18 0.19 0.21 0.20 0.20 0.22 0.18 0.17 0.17 0.17 0.16 0.16 0.16 0.17 0.21 0.22 0.38 0.52 0.49 0.44 0.54 0.62 0.67 0.66 0.77 0.82 0.84 0.87 0.94 0.91 0.89 0.91 0.93 0.97 1.01 1.05 1.14 1.22 1.26 1.35 1.39 1.51 1.50 1.51 1.60 1.59 1.57 1.54 1.58 1.56 1.56 1.55 1.54 1.53 1.48 1.43 1.50 1.53 1.49 1.47 1.47 1.43 1.45 1.40 1.39 1.38 1.34 1.51
0.21 0.20 0.21 0.18 0.17 0.18 0.17 0.19 0.23 0.28 0.25 0.25 0.24 0.22 0.19 0.17 0.16 0.16 0.20 0.21 0.21 0.23 0.24 0.23 0.20 0.16 0.17 0.18 0.19 0.18 0.18 0.17 0.18 0.21 0.20 0.27 0.35 0.50 0.59 0.57 0.59 0.62 0.67 0.78 0.84 0.88 0.93 0.90 0.86 0.86 0.90 0.98 0.99 1.03 1.11 1.22 1.28 1.34 1.41 1.42 1.44 1.48 1.48 1.53 1.59 1.54 1.57 1.55 1.50 1.51 1.53 1.52 1.47 1.47 1.43 1.39 1.36 1.40 1.40 1.38 1.37 1.32 1.35 1.43 1.45 1.47
0.24 0.28 0.31 0.22 0.19 0.17 0.19 0.18 0.22 0.27 0.24 0.23 0.23 0.19 0.19 0.19 0.19 0.19 0.20 0.21 0.19 0.21 0.25 0.22 0.16 0.14 0.15 0.15 0.15 0.18 0.20 0.18 0.17 0.18 0.18 0.23 0.28 0.31 0.53 0.54 0.65 0.69 0.79 0.84 0.87 0.91 0.88 0.86 0.89 0.91 0.92 0.96 1.04 1.11 1.17 1.27 1.31 1.35 1.35 1.43 1.42 1.53 1.55 1.51 1.53 1.54 1.51 1.45 1.40 1.37 1.32 1.28 1.29 1.25 1.29 1.23 1.23 1.27 1.28 1.25 1.32 1.34 1.40 1.39 1.37 1.30
0.23 0.28 0.26 0.21 0.20 0.18 0.20 0.22 0.27 0.26 0.20 0.18 0.19 0.21 0.18 0.18 0.21 0.21 0.20 0.21 0.16 0.15 0.21 0.22 0.16 0.13 0.17 0.16 0.16 0.17 0.18 0.18 0.19 0.19 0.18 0.22 0.25 0.26 0.46 0.52 0.63 0.68 0.77 0.88 0.91 0.90 0.86 0.83 0.86 0.90 0.93 1.04 1.14 1.25 1.32 1.37 1.34 1.35 1.37 1.40 1.41 1.48 1.46 1.50 1.50 1.46 1.41 1.36 1.35 1.31 1.27 1.28 1.26 1.23 1.28 1.33 1.36 1.31 1.30 1.31 1.30 1.35 1.33 1.31 1.24 1.20
0.26 0.24 0.25 0.26 0.23 0.23 0.24 0.22 0.24 0.25 0.20 0.15 0.20 0.23 0.23 0.22 0.20 0.18 0.19 0.20 0.19 0.20 0.21 0.19 0.18 0.15 0.14 0.17 0.21 0.21 0.19 0.18 0.19 0.19 0.21 0.23 0.26 0.26 0.29 0.60 0.56 0.62 0.65 0.72 0.81 0.86 0.87 0.86 0.89 1.02 1.19 1.21 1.28 1.31 1.30 1.31 1.33 1.32 1.32 1.35 1.37 1.41 1.42 1.43 1.40 1.39 1.39 1.33 1.33 1.30 1.28 1.29 1.26 1.24 1.25 1.31 1.34 1.36 1.32 1.31 1.26 1.30 1.22 1.22 1.18 1.18
0.26 0.22 0.25 0.23 0.25 0.24 0.23 0.23 0.22 0.21 0.20 0.19 0.19 0.17 0.21 0.21 0.20 0.18 0.17 0.20 0.21 0.18 0.14 0.15 0.17 0.14 0.14 0.16 0.21 0.21 0.18 0.18 0.19 0.19 0.21 0.24 0.26 0.28 0.27 0.38 0.51 0.60 0.61 0.67 0.76 0.82 0.88 0.93 1.11 1.07 1.03 1.16 1.24 1.33 1.28 1.25 1.29 1.32 1.27 1.29 1.34 1.36 1.45 1.44 1.49 1.36 1.33 1.31 1.29 1.25 1.24 1.24 1.29 1.27 1.27 1.30 1.30 1.26 1.28 1.21 1.25 1.20 1.10 1.15 1.16 1.14
0.27 0.25 0.24 0.26 0.28 0.24 0.24 0.23 0.21 0.20 0.18 0.20 0.21 0.23 0.20 0.18 0.21 0.22 0.22 0.20 0.17 0.15 0.12 0.14 0.17 0.13 0.14 0.21 0.23 0.21 0.18 0.18 0.21 0.23 0.25 0.40 0.35 0.31 0.27 0.29 0.54 0.61 0.65 0.72 0.69 0.77 0.90 1.08 1.00 1.03 1.07 1.14 1.16 1.19 1.34 1.34 1.28 1.29 1.31 1.34 1.35 1.28 1.29 1.35 1.32 1.35 1.31 1.29 1.29 1.25 1.25 1.23 1.23 1.25 1.28 1.28 1.23 1.20 1.20 1.18 1.19 1.16 1.11 1.10 1.12 1.12
0.28 0.33 0.32 0.27 0.27 0.28 0.25 0.21 0.21 0.21 0.21 0.23 0.21 0.20 0.20 0.20 0.21 0.21 0.19 0.18 0.17 0.13 0.12 0.15 0.17 0.17 0.14 0.17 0.20 0.22 0.28 0.35 0.28 0.31 0.52 0.49 0.46 0.42 0.46 0.44 0.66 0.60 0.75 0.70 0.69 0.76 0.94 0.96 1.04 1.05 1.00 1.01 1.05 1.09 1.20 1.34 1.38 1.36 1.33 1.28 1.25 1.20 1.20 1.22 1.28 1.31 1.25 1.27 1.25 1.23 1.23 1.19 1.17 1.21 1.21 1.19 1.17 1.15 1.19 1.15 1.11 1.08 1.07 1.08 1.07 1.10
0.28 0.31 0.30 0.30 0.29 0.29 0.27 0.22 0.23 0.25 0.26 0.23 0.20 0.19 0.20 0.20 0.20 0.17 0.16 0.17 0.12 0.11 0.14 0.16 0.17 0.18 0.13 0.16 0.20 0.34 0.31 0.36 0.34 0.39 0.44 0.42 0.43 0.49 0.47 0.49 0.58 0.66 0.73 0.77 0.87 1.03 1.03 0.92 1.00 1.04 1.03 1.01 1.04 1.03 0.98 1.14 1.30 1.24 1.18 1.12 1.06 0.92 0.93 1.10 1.14 1.16 1.21 1.23 1.23 1.23 1.22 1.20 1.21 1.21 1.19 1.13 1.07 1.10 1.13 1.11 1.05 1.05 1.05 1.05 1.08 1.08
0.22 0.24 0.29 0.30 0.33 0.30 0.26 0.21 0.22 0.23 0.24 0.22 0.20 0.19 0.15 0.14 0.14 0.13 0.14 0.12 0.12 0.11 0.15 0.17 0.18 0.16 0.17 0.20 0.37 0.42 0.43 0.42 0.45 0.45 0.46 0.47 0.47 0.52 0.53 0.48 0.58 0.58 0.73 0.75 0.78 1.00 1.04 1.06 1.04 1.06 1.10 1.09 1.02 0.98 1.01 1.10 1.14 1.14 1.12 1.05 0.94 0.89 0.78 0.77 0.94 1.02 1.13 1.19 1.20 1.21 1.20 1.22 1.27 1.23 1.21 1.15 1.08 1.12 1.09 1.08 1.00 0.99 0.95 1.00 1.02 1.05
0.21 0.25 0.26 0.27 0.29 0.28 0.26 0.19 0.17 0.19 0.21 0.21 0.18 0.18 0.15 0.12 0.12 0.11 0.14 0.16 0.16 0.18 0.21 0.19 0.23 0.20 0.23 0.42 0.50 0.52 0.56 0.56 0.53 0.54 0.53 0.55 0.56 0.59 0.63 0.70 0.82 0.83 0.79 0.88 0.95 0.92 0.90 1.03 1.10 1.12 1.15 1.15 1.13 1.04 1.05 1.04 1.04 1.06 1.04 0.99 0.92 0.89 0.91 0.78 0.87 0.99 1.08 1.16 1.19 1.24 1.23 1.23 1.25 1.20 1.17 1.15 1.15 1.14 1.10 1.06 1.02 0.98 0.94 0.94 1.02 1.04
0.19 0.19 0.21 0.22 0.23 0.28 0.21 0.21 0.21 0.20 0.22 0.22 0.23 0.20 0.17 0.14 0.13 0.12 0.13 0.14 0.17 0.20 0.27 0.30 0.21 0.18 0.19 0.40 0.49 0.53 0.55 0.59 0.61 0.61 0.61 0.60 0.63 0.65 0.65 0.69 0.71 0.82 0.85 0.90 1.02 1.05 1.03 0.99 0.99 1.02 1.00 1.05 1.15 1.19 1.08 1.05 1.03 1.03 0.98 0.93 0.88 0.91 1.02 1.04 0.93 1.01 1.11 1.16 1.20 1.24 1.27 1.27 1.23 1.17 1.12 1.15 1.18 1.12 1.06 1.02 1.02 1.00 0.97 0.97 0.99 1.02
0.24 0.24 0.28 0.29 0.29 0.29 0.23 0.21 0.23 0.23 0.23 0.26 0.26 0.22 0.17 0.15 0.18 0.14 0.20 0.20 0.21 0.22 0.21 0.24 0.22 0.32 0.35 0.51 0.58 0.55 0.54 0.56 0.61 0.62 0.68 0.65 0.68 0.65 0.61 0.66 0.67 0.68 0.75 0.84 0.95 1.05 1.06 1.05 1.00 1.05 0.97 1.01 1.22 1.24 1.18 1.09 1.04 1.00 0.96 0.95 0.96 0.99 1.05 1.12 1.12 1.10 1.13 1.16 1.20 1.23 1.23 1.24 1.19 1.17 1.15 1.19 1.15 1.11 1.08 1.00 1.01 1.02 0.99 1.00 0.98 0.97
0.26 0.25 0.31 0.31 0.33 0.30 0.29 0.25 0.21 0.24 0.17 0.21 0.21 0.17 0.16 0.19 0.18 0.17 0.18 0.22 0.22 0.22 0.20 0.25 0.26 0.32 0.45 0.51 0.55 0.55 0.50 0.53 0.56 0.62 0.65 0.67 0.65 0.66 0.68 0.66 0.70 0.72 0.74 0.83 0.83 0.95 1.07 1.16 1.14 1.06 1.00 1.05 1.22 1.17 1.13 1.08 1.06 1.03 0.98 0.98 1.01 1.06 1.08 1.11 1.16 1.17 1.18 1.18 1.19 1.22 1.23 1.22 1.17 1.13 1.11 1.12 1.11 1.09 1.08 1.05 1.03 1.02 1.02 1.03 1.02 0.98
0.25 0.26 0.31 0.29 0.29 0.33 0.32 0.29 0.25 0.22 0.22 0.23 0.19 0.20 0.22 0.21 0.19 0.18 0.16 0.20 0.18 0.16 0.18 0.22 0.21 0.34 0.33 0.34 0.56 0.54 0.51 0.50 0.52 0.58 0.69 0.71 0.69 0.67 0.73 0.73 0.72 0.74 0.77 0.88 0.96 1.00 1.05 1.10 1.13 1.18 1.22 1.27 1.24 1.18 1.17 1.12 1.11 1.12 1.10 1.08 1.08 1.08 1.09 1.14 1.18 1.19 1.20 1.20 1.20 1.22 1.22 1.19 1.16 1.13 1.13 1.11 1.06 1.04 1.06 1.08 1.07 1.06 1.05 1.01 1.01 1.02
0.27 0.23 0.29 0.30 0.30 0.33 0.33 0.30 0.26 0.24 0.23 0.20 0.24 0.33 0.21 0.18 0.14 0.17 0.17 0.16 0.18 0.18 0.19 0.21 0.22 0.26 0.29 0.36 0.44 0.47 0.51 0.56 0.59 0.64 0.65 0.68 0.70 0.71 0.74 0.74 0.74 0.77 0.79 0.81 0.86 0.93 0.98 1.02 1.08 1.16 1.18 1.22 1.24 1.25 1.30 1.21 1.16 1.16 1.20 1.22 1.19 1.16 1.19 1.23 1.23 1.24 1.26 1.27 1.24 1.24 1.23 1.16 1.11 1.17 1.15 1.11 1.04 0.99 1.07 1.07 1.05 1.07 1.03 1.03 1.07 1.08
0.31 0.23 0.25 0.31 0.28 0.32 0.31 0.27 0.22 0.22 0.23 0.22 0.24 0.26 0.28 0.24 0.22 0.18 0.18 0.18 0.20 0.18 0.19 0.19 0.21 0.32 0.44 0.46 0.53 0.50 0.57 0.61 0.63 0.64 0.69 0.74 0.75 0.79 0.78 0.76 0.77 0.77 0.83 0.85 0.90 1.03 1.04 1.06 1.07 1.16 1.17 1.29 1.30 1.26 1.23 1.24 1.22 1.20 1.22 1.22 1.25 1.26 1.25 1.27 1.24 1.26 1.26 1.31 1.29 1.26 1.23 1.16 1.12 1.18 1.15 1.09 1.04 1.01 1.06 1.06 1.05 1.08 1.04 1.06 1.08 1.08
0.27 0.32 0.24 0.28 0.30 0.29 0.25 0.26 0.22 0.23 0.21 0.19 0.18 0.19 0.23 0.23 0.27 0.27 0.29 0.23 0.21 0.19 0.19 0.21 0.21 0.33 0.45 0.59 0.60 0.61 0.60 0.59 0.61 0.63 0.72 0.78 0.79 0.81 0.84 0.85 0.89 0.89 0.87 0.88 0.97 1.08 1.17 1.07 1.10 1.14 1.17 1.23 1.23 1.29 1.29 1.25 1.19 1.16 1.15 1.15 1.19 1.22 1.20 1.24 1.27 1.27 1.30 1.36 1.31 1.25 1.19 1.11 1.14 1.18 1.14 1.08 1.05 0.99 1.07 1.08 1.06 1.06 1.10 1.08 1.04 1.02
0.23 0.27 0.23 0.28 0.28 0.25 0.24 0.28 0.27 0.23 0.23 0.22 0.19 0.17 0.19 0.20 0.20 0.20 0.20 0.28 0.25 0.24 0.23 0.21 0.20 0.32 0.52 0.64 0.64 0.67 0.71 0.67 0.69 0.71 0.72 0.77 0.79 0.80 0.83 0.89 0.92 0.96 0.95 0.93 0.98 1.12 1.06 1.09 1.14 1.23 1.22 1.20 1.15 1.23 1.25 1.28 1.26 1.24 1.19 1.19 1.19 1.16 1.19 1.19 1.26 1.28 1.36 1.42 1.34 1.24 1.17 1.14 1.21 1.21 1.12 1.04 1.04 0.99 1.07 1.09 1.06 1.08 1.10 1.05 1.03 0.99
0.25 0.26 0.27 0.24 0.26 0.27 0.25 0.27 0.28 0.26 0.23 0.23 0.23 0.20 0.20 0.20 0.22 0.22 0.19 0.25 0.34 0.30 0.30 0.29 0.23 0.33 0.56 0.67 0.69 0.69 0.74 0.74 0.75 0.76 0.73 0.75 0.76 0.75 0.81 0.87 0.92 0.95 0.95 0.98 1.00 1.05 1.13 1.03 1.12 1.16 1.19 1.19 1.19 1.20 1.21 1.23 1.21 1.22 1.21 1.21 1.23 1.26 1.25 1.27 1.31 1.41 1.38 1.34 1.34 1.27 1.21 1.21 1.24 1.20 1.08 1.03 1.03 1.01 1.07 1.09 1.06 1.08 1.07 1.04 1.01 0.96
0.29 0.25 0.26 0.26 0.29 0.31 0.33 0.34 0.31 0.27 0.24 0.22 0.23 0.24 0.23 0.20 0.20 0.20 0.22 0.29 0.26 0.27 0.25 0.25 0.21 0.28 0.53 0.74 0.75 0.70 0.77 0.77 0.79 0.76 0.71 0.73 0.75 0.77 0.78 0.84 0.85 0.86 0.88 0.94 0.96 0.99 1.01 1.05 1.07 1.09 1.09 1.13 1.13 1.12 1.12 1.13 1.14 1.15 1.16 1.18 1.21 1.23 1.28 1.27 1.33 1.43 1.39 1.39 1.33 1.30 1.23 1.22 1.24 1.16 1.06 1.02 1.04 1.02 1.07 1.06 1.04 1.05 1.04 1.04 1.05 0.94
0.28 0.29 0.25 0.24 0.23 0.25 0.27 0.31 0.33 0.30 0.25 0.23 0.24 0.26 0.26 0.27 0.27 0.31 0.30 0.31 0.25 0.28 0.29 0.26 0.23 0.34 0.62 0.71 0.73 0.74 0.73 0.73 0.75 0.77 0.74 0.69 0.71 0.75 0.78 0.80 0.82 0.83 0.84 0.86 0.87 0.88 0.91 0.92 0.95 0.97 1.01 1.04 1.06 1.05 1.07 1.08 1.09 1.12 1.15 1.20 1.19 1.21 1.26 1.28 1.28 1.33 1.39 1.40 1.31 1.27 1.25 1.24 1.21 1.12 1.06 1.04 1.05 1.03 1.05 1.05 1.05 1.02 1.04 1.05 1.05 0.99
0.36 0.34 0.27 0.21 0.21 0.19 0.19 0.21 0.23 0.28 0.29 0.30 0.28 0.31 0.33 0.31 0.35 0.35 0.27 0.29 0.23 0.29 0.32 0.29 0.32 0.50 0.61 0.66 0.67 0.69 0.67 0.65 0.69 0.71 0.72 0.71 0.70 0.71 0.73 0.76 0.80 0.81 0.82 0.82 0.84 0.84 0.83 0.85 0.87 0.90 0.94 0.98 1.01 1.02 1.03 1.05 1.05 1.09 1.15 1.18 1.24 1.23 1.24 1.26 1.30 1.32 1.32 1.37 1.36 1.30 1.23 1.22 1.15 1.09 1.07 1.07 1.07 1.06 1.06 1.07 1.05 1.01 1.04 1.04 1.01 0.99
0.39 0.40 0.38 0.32 0.30 0.30 0.36 0.36 0.40 0.37 0.36 0.30 0.35 0.34 0.43 0.44 0.45 0.43 0.39 0.31 0.26 0.31 0.31 0.33 0.32 0.42 0.45 0.52 0.59 0.60 0.60 0.59 0.61 0.63 0.62 0.66 0.69 0.73 0.74 0.76 0.77 0.78 0.78 0.78 0.78 0.80 0.81 0.80 0.80 0.83 0.86 0.90 0.95 0.99 1.00 1.02 1.07 1.09 1.13 1.15 1.19 1.22 1.23 1.23 1.33 1.32 1.29 1.36 1.36 1.30 1.20 1.20 1.15 1.14 1.14 1.10 1.10 1.12 1.08 1.05 1.04 1.00 1.02 1.04 1.02 0.98
0.40 0.34 0.39 0.36 0.39 0.44 0.45 0.43 0.43 0.38 0.38 0.43 0.38 0.38 0.41 0.42 0.46 0.41 0.35 0.34 0.44 0.40 0.36 0.43 0.44 0.37 0.43 0.49 0.55 0.57 0.60 0.60 0.62 0.61 0.64 0.67 0.67 0.69 0.72 0.74 0.75 0.76 0.77 0.77 0.75 0.74 0.74 0.75 0.77 0.78 0.81 0.84 0.86 0.90 0.93 0.98 1.02 1.05 1.08 1.11 1.15 1.21 1.23 1.25 1.28 1.32 1.33 1.34 1.32 1.27 1.23 1.21 1.22 1.16 1.18 1.15 1.16 1.15 1.09 1.07 1.06 1.05 1.02 1.01 0.99 0.95
0.47 0.41 0.46 0.42 0.42 0.43 0.44 0.44 0.46 0.44 0.44 0.49 0.44 0.40 0.39 0.45 0.46 0.40 0.42 0.44 0.43 0.37 0.34 0.45 0.49 0.44 0.47 0.51 0.55 0.57 0.59 0.60 0.61 0.61 0.65 0.69 0.70 0.71 0.71 0.70 0.71 0.71 0.72 0.71 0.70 0.70 0.71 0.71 0.73 0.75 0.77 0.80 0.85 0.86 0.88 0.90 0.94 0.99 1.07 1.12 1.16 1.18 1.23 1.29 1.25 1.27 1.31 1.32 1.31 1.25 1.23 1.22 1.25 1.21 1.20 1.18 1.15 1.13 1.08 1.07 1.06 1.05 1.02 0.99 0.95 0.88
0.48 0.42 0.44 0.43 0.37 0.38 0.36 0.37 0.44 0.44 0.48 0.47 0.44 0.43 0.44 0.46 0.46 0.48 0.46 0.47 0.47 0.45 0.46 0.48 0.49 0.45 0.48 0.49 0.54 0.58 0.62 0.61 0.62 0.64 0.66 0.66 0.67 0.68 0.70 0.71 0.70 0.70 0.70 0.70 0.70 0.72 0.72 0.74 0.74 0.76 0.77 0.81 0.83 0.85 0.87 0.90 0.93 0.97 1.03 1.10 1.17 1.22 1.29 1.31 1.31 1.30 1.31 1.30 1.28 1.25 1.26 1.28 1.26 1.22 1.19 1.15 1.14 1.13 1.09 1.09 1.09 1.06 1.03 0.99 0.92 0.88
0.45 0.40 0.45 0.42 0.37 0.37 0.39 0.46 0.51 0.49 0.46 0.39 0.44 0.45 0.46 0.51 0.51 0.50 0.49 0.50 0.51 0.50 0.50 0.46 0.43 0.40 0.48 0.54 0.55 0.59 0.61 0.61 0.61 0.59 0.60 0.63 0.65 0.65 0.67 0.68 0.68 0.68 0.70 0.71 0.72 0.73 0.75 0.75 0.76 0.77 0.78 0.80 0.83 0.84 0.87 0.90 0.94 0.99 1.04 1.10 1.16 1.22 1.27 1.30 1.31 1.34 1.36 1.28 1.31 1.31 1.28 1.25 1.18 1.16 1.18 1.10 1.17 1.16 1.10 1.08 1.08 1.05 1.02 0.96 0.91 0.90
0.44 0.39 0.45 0.42 0.33 0.32 0.38 0.40 0.42 0.50 0.49 0.42 0.40 0.41 0.44 0.46 0.44 0.45 0.44 0.49 0.45 0.43 0.46 0.46 0.40 0.38 0.49 0.53 0.55 0.56 0.58 0.57 0.55 0.56 0.58 0.60 0.61 0.64 0.66 0.67 0.67 0.69 0.70 0.71 0.72 0.73 0.74 0.74 0.75 0.77 0.78 0.81 0.83 0.86 0.86 0.90 0.93 0.99 1.03 1.10 1.12 1.21 1.30 1.31 1.33 1.32 1.31 1.30 1.30 1.30 1.28 1.24 1.20 1.14 1.16 1.16 1.17 1.16 1.12 1.12 1.08 1.07 1.05 1.00 0.98 0.98
0.43 0.40 0.36 0.36 0.31 0.32 0.40 0.41 0.40 0.44 0.43 0.37 0.37 0.40 0.42 0.45 0.49 0.49 0.49 0.53 0.52 0.51 0.42 0.37 0.38 0.48 0.51 0.54 0.50 0.52 0.54 0.55 0.57 0.58 0.58 0.61 0.62 0.64 0.65 0.66 0.68 0.69 0.70 0.71 0.71 0.72 0.72 0.73 0.75 0.77 0.79 0.82 0.85 0.86 0.90 0.92 0.95 0.97 1.05 1.10 1.17 1.23 1.25 1.24 1.28 1.31 1.30 1.32 1.32 1.29 1.32 1.33 1.27 1.25 1.24 1.26 1.23 1.20 1.17 1.14 1.13 1.12 1.07 1.04 1.04 1.04
0.41 0.35 0.33 0.41 0.29 0.31 0.34 0.38 0.40 0.38 0.29 0.31 0.48 0.51 0.48 0.44 0.47 0.44 0.43 0.47 0.53 0.53 0.48 0.50 0.48 0.52 0.53 0.52 0.51 0.52 0.51 0.55 0.57 0.61 0.63 0.64 0.63 0.64 0.66 0.67 0.70 0.72 0.73 0.73 0.72 0.73 0.74 0.76 0.77 0.79 0.80 0.82 0.85 0.88 0.92 0.96 0.97 1.02 1.06 1.12 1.16 1.19 1.23 1.19 1.22 1.24 1.25 1.26 1.28 1.31 1.30 1.29 1.27 1.27 1.27 1.22 1.22 1.19 1.17 1.15 1.13 1.13 1.12 1.09 1.08 1.04
0.36 0.33 0.31 0.39 0.28 0.27 0.35 0.36 0.32 0.26 0.29 0.46 0.55 0.55 0.54 0.54 0.52 0.49 0.51 0.53 0.53 0.55 0.53 0.50 0.50 0.51 0.53 0.54 0.54 0.55 0.57 0.59 0.62 0.62 0.64 0.66 0.67 0.66 0.66 0.68 0.71 0.72 0.73 0.72 0.72 0.74 0.76 0.76 0.77 0.80 0.81 0.82 0.84 0.86 0.90 0.93 0.97 0.99 1.03 1.07 1.11 1.16 1.17 1.21 1.19 1.19 1.21 1.21 1.22 1.25 1.26 1.26 1.26 1.23 1.21 1.21 1.19 1.18 1.15 1.14 1.14 1.14 1.14 1.12 1.08 1.03
0.31 0.27 0.31 0.31 0.31 0.33 0.26 0.31 0.23 0.26 0.42 0.51 0.52 0.53 0.57 0.56 0.54 0.53 0.48 0.53 0.55 0.55 0.53 0.50 0.51 0.53 0.54 0.55 0.56 0.59 0.57 0.58 0.60 0.62 0.64 0.68 0.69 0.69 0.68 0.70 0.73 0.74 0.73 0.74 0.74 0.75 0.76 0.76 0.77 0.78 0.80 0.83 0.84 0.85 0.86 0.87 0.92 0.94 0.97 1.03 1.06 1.10 1.14 1.15 1.16 1.16 1.18 1.18 1.20 1.20 1.21 1.22 1.22 1.20 1.22 1.23 1.19 1.15 1.16 1.15 1.12 1.10 1.11 1.08 1.06 1.04
0.37 0.33 0.31 0.27 0.33 0.23 0.27 0.29 0.30 0.41 0.40 0.43 0.44 0.47 0.49 0.45 0.46 0.44 0.37 0.45 0.55 0.57 0.56 0.53 0.53 0.54 0.55 0.56 0.58 0.58 0.58 0.57 0.55 0.58 0.65 0.67 0.68 0.71 0.71 0.72 0.75 0.76 0.77 0.77 0.76 0.76 0.78 0.79 0.79 0.79 0.81 0.82 0.83 0.84 0.84 0.87 0.88 0.89 0.92 0.94 0.99 1.05 1.03 1.04 1.09 1.12 1.15 1.16 1.17 1.18 1.19 1.20 1.18 1.18 1.18 1.16 1.16 1.14 1.13 1.12 1.10 1.14 1.12 1.07 1.06 1.04
0.41 0.29 0.31 0.23 0.28 0.34 0.28 0.27 0.29 0.30 0.26 0.34 0.46 0.53 0.58 0.58 0.57 0.56 0.49 0.43 0.56 0.59 0.60 0.56 0.53 0.55 0.55 0.57 0.57 0.58 0.59 0.53 0.46 0.50 0.60 0.66 0.69 0.70 0.70 0.72 0.75 0.76 0.77 0.77 0.78 0.78 0.77 0.78 0.80 0.81 0.80 0.81 0.82 0.83 0.84 0.86 0.87 0.87 0.87 0.88 0.92 0.94 0.96 0.98 1.00 1.04 1.07 1.10 1.13 1.14 1.17 1.18 1.17 1.16 1.15 1.14 1.13 1.12 1.12 1.13 1.13 1.11 1.14 1.11 1.08 1.06
0.43 0.40 0.35 0.28 0.29 0.33 0.32 0.28 0.29 0.27 0.31 0.43 0.47 0.53 0.57 0.60 0.58 0.57 0.46 0.37 0.53 0.59 0.60 0.59 0.56 0.56 0.57 0.57 0.58 0.59 0.53 0.44 0.44 0.51 0.59 0.64 0.67 0.69 0.69 0.70 0.71 0.73 0.74 0.75 0.74 0.74 0.75 0.76 0.78 0.79 0.82 0.82 0.80 0.82 0.84 0.85 0.86 0.86 0.85 0.87 0.89 0.89 0.90 0.93 0.96 1.01 1.05 1.06 1.08 1.11 1.13 1.13 1.14 1.14 1.13 1.12 1.11 1.11 1.09 1.09 1.08 1.09 1.11 1.10 1.09 1.07
0.37 0.36 0.33 0.28 0.29 0.34 0.35 0.31 0.28 0.34 0.34 0.44 0.51 0.54 0.57 0.61 0.60 0.51 0.30 0.32 0.52 0.59 0.61 0.60 0.58 0.58 0.59 0.61 0.61 0.57 0.52 0.45 0.47 0.54 0.62 0.63 0.66 0.68 0.67 0.68 0.69 0.70 0.71 0.74 0.75 0.75 0.74 0.74 0.75 0.77 0.78 0.79 0.79 0.81 0.82 0.83 0.83 0.83 0.83 0.84 0.86 0.86 0.86 0.88 0.91 0.96 0.99 1.03 1.06 1.07 1.08 1.09 1.09 1.09 1.09 1.09 1.09 1.09 1.09 1.10 1.08 1.07 1.06 1.06 1.06 1.03
0.33 0.33 0.33 0.27 0.34 0.35 0.35 0.33 0.35 0.37 0.46 0.52 0.53 0.57 0.57 0.59 0.54 0.35 0.27 0.40 0.57 0.61 0.63 0.62 0.60 0.62 0.63 0.61 0.61 0.55 0.59 0.61 0.62 0.65 0.67 0.67 0.66 0.67 0.70 0.71 0.72 0.72 0.71 0.72 0.74 0.76 0.74 0.73 0.71 0.71 0.73 0.76 0.78 0.80 0.80 0.80 0.80 0.80 0.81 0.82 0.83 0.83 0.85 0.88 0.91 0.92 0.95 0.99 1.01 1.03 1.04 1.06 1.06 1.05 1.06 1.07 1.07 1.07 1.07 1.07 1.06 1.05 1.04 1.03 1.03 1.03
0.31 0.34 0.34 0.35 0.34 0.34 0.35 0.32 0.32 0.37 0.47 0.53 0.56 0.58 0.56 0.48 0.32 0.31 0.48 0.61 0.61 0.60 0.63 0.64 0.62 0.64 0.64 0.62 0.62 0.63 0.64 0.68 0.69 0.69 0.68 0.67 0.67 0.68 0.69 0.70 0.71 0.72 0.74 0.75 0.76 0.76 0.75 0.74 0.72 0.71 0.69 0.70 0.71 0.74 0.75 0.75 0.75 0.76 0.77 0.78 0.79 0.81 0.85 0.88 0.89 0.90 0.90 0.90 0.92 0.96 0.99 1.01 1.03 1.04 1.04 1.04 1.06 1.04 1.03 1.04 1.05 1.05 1.04 1.03 1.02 1.00
0.32 0.31 0.31 0.32 0.38 0.39 0.36 0.31 0.29 0.24 0.42 0.54 0.54 0.53 0.53 0.39 0.42 0.53 0.58 0.62 0.64 0.62 0.61 0.62 0.62 0.62 0.63 0.60 0.63 0.64 0.66 0.67 0.67 0.68 0.68 0.68 0.67 0.67 0.67 0.68 0.69 0.70 0.71 0.72 0.74 0.75 0.75 0.74 0.74 0.73 0.73 0.73 0.71 0.70 0.71 0.71 0.70 0.70 0.71 0.72 0.74 0.77 0.79 0.81 0.83 0.85 0.87 0.87 0.87 0.88 0.90 0.91 0.93 0.94 0.95 0.96 0.96 0.96 0.95 0.95 0.95 0.93 0.92 0.90 0.87 0.87
0.42 0.33 0.34 0.35 0.40 0.30 0.29 0.26 0.27 0.38 0.48 0.55 0.50 0.38 0.49 0.51 0.57 0.59 0.58 0.56 0.62 0.62 0.61 0.61 0.61 0.62 0.62 0.60 0.60 0.61 0.63 0.64 0.65 0.66 0.67 0.67 0.67 0.68 0.68 0.69 0.69 0.71 0.71 0.72 0.73 0.74 0.75 0.74 0.75 0.75 0.76 0.76 0.76 0.75 0.74 0.73 0.71 0.69 0.68 0.69 0.72 0.73 0.74 0.76 0.78 0.80 0.81 0.81 0.81 0.81 0.82 0.82 0.83 0.84 0.84 0.83 0.83 0.85 0.84 0.84 0.83 0.85 0.87 0.85 0.82 0.79
0.40 0.38 0.41 0.33 0.42 0.35 0.33 0.37 0.45 0.51 0.52 0.55 0.54 0.51 0.54 0.58 0.59 0.60 0.59 0.58 0.58 0.60 0.64 0.60 0.60 0.62 0.62 0.61 0.60 0.60 0.59 0.61 0.62 0.65 0.64 0.65 0.65 0.66 0.66 0.67 0.68 0.69 0.70 0.69 0.70 0.72 0.73 0.73 0.73 0.74 0.75 0.76 0.76 0.76 0.75 0.75 0.72 0.70 0.69 0.71 0.71 0.70 0.70 0.70 0.71 0.72 0.72 0.75 0.77 0.76 0.73 0.72 0.73 0.74 0.75 0.76 0.76 0.73 0.72 0.73 0.74 0.71 0.72 0.74 0.73 0.72
0.44 0.43 0.45 0.40 0.38 0.45 0.47 0.48 0.49 0.49 0.49 0.49 0.53 0.55 0.54 0.56 0.60 0.60 0.58 0.56 0.59 0.61 0.63 0.61 0.61 0.61 0.62 0.62 0.59 0.58 0.58 0.58 0.58 0.59 0.60 0.62 0.63 0.64 0.64 0.65 0.66 0.67 0.68 0.69 0.69 0.69 0.69 0.69 0.70 0.69 0.69 0.72 0.74 0.74 0.76 0.76 0.75 0.73 0.73 0.75 0.75 0.73 0.72 0.70 0.68 0.68 0.67 0.70 0.72 0.73 0.75 0.74 0.74 0.73 0.72 0.70 0.71 0.70 0.70 0.68 0.69 0.70 0.70 0.70 0.67 0.65
0.45 0.46 0.40 0.33 0.39 0.33 0.28 0.43 0.43 0.43 0.45 0.44 0.45 0.50 0.53 0.54 0.54 0.57 0.56 0.57 0.59 0.61 0.62 0.63 0.63 0.61 0.61 0.60 0.58 0.56 0.56 0.56 0.55 0.56 0.56 0.57 0.58 0.60 0.61 0.61 0.62 0.64 0.64 0.64 0.66 0.67 0.67 0.66 0.65 0.66 0.66 0.66 0.69 0.72 0.74 0.76 0.76 0.76 0.78 0.78 0.78 0.77 0.74 0.71 0.69 0.68 0.67 0.66 0.67 0.67 0.67 0.65 0.64 0.64 0.64 0.66 0.67 0.68 0.68 0.66 0.63 0.62 0.62 0.62 0.61 0.62
0.31 0.40 0.32 0.35 0.33 0.28 0.29 0.35 0.36 0.39 0.39 0.41 0.41 0.39 0.40 0.43 0.47 0.49 0.51 0.53 0.55 0.57 0.57 0.58 0.59 0.58 0.59 0.57 0.58 0.56 0.55 0.56 0.55 0.54 0.54 0.54 0.55 0.56 0.58 0.60 0.61 0.62 0.64 0.65 0.65 0.64 0.63 0.63 0.63 0.65 0.66 0.65 0.67 0.69 0.72 0.74 0.75 0.76 0.76 0.77 0.79 0.79 0.79 0.76 0.72 0.71 0.70 0.68 0.66 0.66 0.66 0.65 0.63 0.60 0.59 0.60 0.62 0.61 0.61 0.60 0.57 0.53 0.53 0.56 0.56 0.55
0.32 0.33 0.23 0.28 0.24 0.29 0.31 0.31 0.33 0.35 0.34 0.35 0.37 0.38 0.39 0.40 0.40 0.41 0.43 0.44 0.46 0.47 0.49 0.52 0.56 0.56 0.58 0.57 0.59 0.58 0.57 0.58 0.57 0.57 0.55 0.55 0.56 0.56 0.56 0.58 0.60 0.61 0.62 0.61 0.62 0.63 0.62 0.61 0.61 0.62 0.63 0.65 0.69 0.70 0.69 0.70 0.72 0.73 0.75 0.75 0.76 0.76 0.75 0.74 0.73 0.71 0.71 0.73 0.73 0.69 0.67 0.66 0.65 0.64 0.61 0.57 0.57 0.58 0.58 0.58 0.56 0.53 0.53 0.52 0.54 0.54
0.29 0.23 0.28 0.26 0.21 0.22 0.24 0.28 0.33 0.24 0.21 0.29 0.31 0.33 0.35 0.38 0.38 0.37 0.39 0.39 0.40 0.40 0.42 0.43 0.45 0.49 0.51 0.52 0.53 0.54 0.54 0.55 0.57 0.59 0.58 0.58 0.57 0.58 0.59 0.59 0.59 0.59 0.60 0.62 0.62 0.62 0.61 0.63 0.64 0.63 0.61 0.61 0.62 0.63 0.65 0.66 0.67 0.69 0.70 0.71 0.71 0.72 0.71 0.72 0.71 0.68 0.65 0.65 0.66 0.67 0.68 0.67 0.66 0.65 0.64 0.61 0.57 0.55 0.55 0.58 0.58 0.58 0.54 0.54 0.56 0.55
0.28 0.30 0.31 0.22 0.20 0.22 0.29 0.30 0.31 0.27 0.27 0.27 0.29 0.36 0.38 0.36 0.34 0.33 0.34 0.35 0.36 0.38 0.40 0.39 0.39 0.42 0.44 0.46 0.48 0.48 0.49 0.52 0.56 0.58 0.57 0.57 0.59 0.60 0.60 0.60 0.59 0.59 0.59 0.60 0.61 0.61 0.61 0.61 0.62 0.62 0.62 0.62 0.62 0.62 0.61 0.60 0.60 0.62 0.64 0.64 0.65 0.64 0.65 0.65 0.66 0.66 0.63 0.60 0.60 0.60 0.60 0.59 0.60 0.61 0.60 0.60 0.57 0.53 0.52 0.50 0.51 0.51 0.51 0.50 0.49 0.49
Wind_Speed
16 16 17 17 18 18 18 18 18 18 18 16 15 14 14 13 14 14 11 10 11 12 13 13 15 16 16 17 16 15 15 16 17 16 16 17 17 18 18 18 18 18 17 16 16 16 17 17 17 17 16 16 16 16 16 17 18 18 18 18 18 18 18 17 16 16 16 15 14 12 12 12 11 11 11 11 11 11 11 11 11 11 11 12 11 11
17 17 17 18 18 18 18 19 19 20 19 18 16 14 14 14 13 14 13 12 11 11 13 14 16 17 18 19 19 19 19 17 17 16 16 17 17 18 18 18 18 17 17 18 17 17 18 18 17 16 16 16 16 16 17 17 18 18 18 18 18 18 18 18 17 16 16 15 14 13 12 12 12 11 12 11 11 11 11 11 12 11 11 11 11 11
16 17 18 18 18 18 19 19 19 20 20 17 15 15 14 13 12 14 14 12 11 12 13 15 16 17 18 19 20 21 21 19 18 17 17 18 18 18 18 17 18 18 18 19 19 18 18 19 18 17 17 17 17 17 18 18 18 18 18 18 18 19 18 18 17 16 15 15 14 13 12 12 12 12 12 11 11 11 11 11 12 12 11 11 10 10
15 16 18 18 18 18 19 19 17 17 18 16 16 16 15 15 14 13 13 12 13 14 13 13 16 17 18 18 19 20 21 21 21 19 18 18 19 19 18 18 18 18 19 20 21 20 19 19 19 18 18 17 17 17 18 18 18 19 19 18 17 17 16 15 15 15 14 14 14 13 13 12 12 12 11 11 11 12 11 12 12 12 11 11 10 10
16 16 17 18 18 19 19 19 17 15 16 17 18 18 16 17 17 15 14 14 15 15 14 15 17 18 18 18 17 18 19 21 23 23 20 20 21 20 20 20 20 19 20 22 22 21 21 20 19 19 19 18 18 18 18 19 19 18 17 16 15 14 14 14 14 13 13 13 13 13 13 12 12 12 12 12 12 12 12 12 13 12 12 11 10 9
18 17 16 17 18 20 19 17 17 17 17 17 19 20 19 19 19 18 16 16 16 16 14 14 16 16 17 19 19 18 18 20 22 23 22 20 21 21 20 21 21 21 21 21 21 21 21 21 21 20 20 19 19 19 19 19 19 17 16 14 14 13 13 13 13 13 13 13 13 13 13 14 13 13 13 13 12 12 12 12 13 13 12 11 10 9
18 18 16 15 15 16 17 16 17 18 17 17 17 18 20 20 20 20 18 17 16 15 14 14 16 16 16 17 18 18 19 20 20 21 21 20 20 20 19 21 22 21 21 20 20 21 21 22 22 21 20 19 18 19 18 16 15 14 13 13 13 14 14 13 13 12 13 13 13 13 14 14 14 14 14 13 12 12 12 13 13 12 12 11 10 9
17 19 18 17 16 15 16 17 17 17 17 16 16 16 17 19 21 20 19 18 17 16 17 17 17 17 16 15 15 16 17 18 18 18 19 19 19 20 19 21 22 22 21 21 21 21 22 21 21 19 18 17 16 17 16 14 13 12 11 12 12 13 14 14 14 13 13 13 13 13 13 13 13 13 14 13 13 13 13 13 12 12 12 11 10 10
16 19 19 17 16 16 16 17 16 17 17 16 16 17 17 17 18 18 17 18 18 18 19 18 17 16 15 14 15 16 16 16 16 15 16 17 17 18 19 20 22 21 21 21 21 21 21 20 19 19 19 18 17 16 15 15 15 13 11 12 13 13 12 11 12 12 12 12 12 13 13 13 13 13 14 13 13 13 13 13 13 12 12 11 10 10
15 17 17 16 16 16 16 17 17 18 17 16 17 18 17 14 14 15 15 16 17 18 18 17 16 15 15 14 14 14 15 14 15 14 13 12 12 13 15 16 20 22 21 21 22 21 20 19 20 21 21 21 20 19 18 18 18 16 14 14 14 14 12 9 8 9 11 11 12 13 13 14 14 14 14 14 14 14 14 14 13 13 12 11 11 10
15 15 17 17 17 17 17 17 17 18 16 15 16 17 15 14 14 15 16 15 15 17 18 17 17 16 15 14 14 14 12 10 11 12 11 10 10 10 10 10 14 18 18 18 20 19 18 18 19 20 20 21 21 21 19 18 19 18 17 16 15 14 14 12 10 11 11 11 11 12 13 13 14 15 15 15 15 14 14 14 14 13 12 12 11 11
18 16 16 16 16 15 16 16 16 16 14 14 14 14 13 13 15 15 15 15 15 16 16 17 17 18 16 14 13 12 11 10 10 11 11 12 12 11 12 11 12 15 15 15 16 16 16 17 17 17 18 18 20 22 20 18 19 19 18 18 17 16 14 13 14 14 13 13 12 12 13 13 14 15 16 16 16 15 15 15 14 13 12 12 11 11
19 19 17 16 16 16 16 15 16 16 15 14 14 13 13 13 12 13 13 13 15 15 15 16 16 16 14 11 9 8 9 9 11 11 12 13 12 11 13 14 14 17 17 16 15 15 15 16 16 17 17 18 20 21 21 20 20 21 21 20 19 18 15 13 14 15 15 14 14 13 13 13 14 15 15 16 16 16 16 15 14 14 13 12 11 11
17 19 20 17 15 17 18 16 15 16 15 15 15 14 14 13 12 12 12 12 13 13 14 15 15 14 13 9 7 8 8 9 10 11 12 13 13 12 12 13 13 14 16 16 15 16 17 17 18 18 18 19 20 20 20 21 21 21 21 21 19 19 17 13 13 14 14 14 14 13 13 13 14 14 15 16 16 16 16 16 15 14 13 12 11 10
16 17 18 17 15 16 19 18 16 14 14 15 15 15 15 14 13 12 11 12 12 12 12 13 13 12 12 10 8 9 9 10 10 11 12 13 13 13 12 12 14 15 16 16 15 15 17 18 19 20 19 19 20 21 21 21 21 20 21 21 19 19 19 15 12 13 13 13 13 13 13 13 14 14 14 15 16 16 16 16 15 14 13 12 11 11
17 16 16 17 16 16 17 18 18 16 14 14 15 16 17 16 14 12 12 12 11 10 11 12 11 9 9 10 9 10 10 9 10 11 13 13 13 13 12 13 15 16 16 17 16 16 17 18 19 19 19 19 20 21 21 21 21 20 20 20 19 19 19 16 14 13 13 14 13 13 13 14 14 14 14 15 15 16 16 16 15 14 13 12 11 11
16 15 14 16 17 17 17 16 18 17 14 12 14 16 16 16 15 13 13 13 12 11 12 12 11 8 8 9 8 9 10 9 10 12 12 13 12 12 12 12 13 14 15 16 18 19 19 18 18 19 19 20 20 20 20 21 20 19 18 19 19 18 18 18 16 16 15 15 15 14 14 14 14 14 14 15 16 16 17 16 16 14 13 12 12 11
15 14 14 16 17 17 17 16 17 18 16 13 13 14 14 15 16 14 13 12 13 13 12 13 13 10 9 10 8 8 9 9 10 11 11 10 10 9 9 10 11 12 12 13 15 18 18 18 17 18 18 18 19 19 19 20 19 17 17 17 18 18 18 17 17 16 16 16 16 15 15 15 14 14 14 15 16 17 17 17 16 15 13 13 12 12
14 14 15 17 16 15 17 17 16 17 19 17 14 12 13 13 14 15 14 13 12 13 12 13 14 10 8 9 9 8 8 8 8 9 9 7 6 6 7 7 9 9 10 10 12 13 14 15 15 16 16 15 16 16 16 17 17 16 15 16 17 17 17 17 17 16 16 17 17 16 17 16 15 15 15 15 16 17 18 18 16 15 14 13 13 12
14 14 14 15 16 14 15 16 15 15 17 18 16 14 13 13 12 13 13 13 13 12 11 12 12 9 9 9 8 8 8 8 8 8 7 5 4 4 5 5 6 6 7 7 7 8 8 10 11 13 12 12 12 13 13 13 14 14 14 15 15 16 17 17 17 16 17 17 17 17 17 17 16 16 16 17 16 17 18 18 16 16 14 13 13 12
15 14 13 13 15 16 15 15 16 15 15 17 18 17 15 14 13 13 12 12 13 13 11 11 11 9 9 10 8 8 9 8 8 7 6 5 4 4 4 5 5 4 4 3 3 3 3 5 6 8 9 8 8 9 10 11 11 12 13 14 14 15 16 17 18 18 18 18 17 17 17 16 16 16 17 17 17 17 18 18 17 16 15 14 13 13
16 15 15 14 14 16 16 16 16 16 16 16 17 18 17 16 15 14 13 12 13 13 12 11 10 9 9 9 8 7 7 7 7 6 6 5 5 5 5 6 5 4 4 4 3 2 2 2 3 4 5 6 6 5 7 9 9 11 12 13 14 15 15 16 18 19 20 19 17 17 16 16 16 16 17 18 18 18 18 18 17 16 15 14 13 12
16 15 16 16 16 16 15 14 16 17 17 16 16 17 18 17 17 16 13 12 12 13 12 10 9 10 9 8 8 7 5 5 5 5 5 5 5 4 5 6 6 6 5 5 5 4 4 4 3 4 5 5 5 5 5 8 9 10 11 12 13 14 14 16 17 20 20 19 17 17 16 16 16 16 17 18 18 19 19 19 18 17 15 14 13 12
15 16 16 15 15 16 15 12 14 17 17 16 16 16 16 17 17 17 14 12 13 13 12 10 10 11 10 8 7 6 3 2 2 3 4 5 4 4 5 6 6 6 6 6 6 6 6 6 6 6 7 6 6 6 7 8 10 11 11 13 13 13 14 15 16 18 20 19 18 17 17 17 17 17 18 18 18 19 19 19 19 17 15 14 14 13
14 16 16 15 14 15 15 13 14 15 14 15 15 16 17 16 14 14 13 12 14 14 11 10 9 10 9 8 6 5 3 3 3 3 4 5 5 5 5 6 6 6 6 7 7 7 7 7 7 8 8 8 8 8 9 9 11 12 12 13 14 14 15 16 16 18 19 19 19 18 18 17 17 18 18 19 19 19 19 19 18 17 15 15 14 13
14 14 14 15 14 14 13 12 12 12 12 13 13 13 14 13 11 12 13 13 14 13 11 11 11 10 9 6 5 5 5 5 5 5 5 5 5 5 6 6 6 5 6 6 7 7 8 7 8 8 9 10 10 10 11 11 11 12 13 13 14 15 15 16 16 18 19 19 19 18 17 17 18 19 19 19 19 19 19 19 18 17 16 15 14 13
14 14 14 14 13 12 12 11 11 12 12 12 11 10 9 10 9 10 11 11 12 11 10 12 12 10 8 6 5 5 5 5 5 5 5 5 5 5 6 6 6 6 6 6 6 7 8 8 9 9 10 10 11 11 11 12 12 12 13 14 14 15 16 16 16 17 19 20 19 18 17 17 18 19 19 19 19 20 19 19 17 16 16 15 14 14
15 15 14 14 13 12 12 11 11 12 11 10 10 9 9 9 10 10 10 10 11 11 10 11 12 10 9 8 7 7 6 5 6 5 5 5 5 6 6 5 5 5 6 6 6 7 8 8 9 10 10 11 11 12 12 12 13 13 14 15 15 16 16 16 16 17 18 20 20 19 18 17 18 18 18 19 20 20 19 18 17 16 16 15 15 14
15 15 13 13 14 13 11 12 11 11 10 8 8 9 9 9 9 10 10 10 12 12 12 12 10 9 8 8 8 7 7 6 6 5 5 5 6 6 6 5 5 6 6 6 7 7 8 8 9 9 10 11 11 11 12 12 13 13 14 15 15 15 15 15 16 17 17 19 19 19 19 18 18 18 18 19 20 20 19 18 17 16 16 16 15 14
15 14 13 13 15 14 12 12 12 11 11 9 7 7 8 9 9 9 9 10 11 11 10 10 9 8 8 8 7 7 7 6 6 6 5 5 6 6 6 6 6 6 6 7 7 7 8 8 9 9 9 10 10 11 11 11 12 13 13 13 13 14 14 14 15 16 17 18 19 19 19 19 18 18 18 19 20 19 18 17 17 16 16 15 15 14
15 14 13 13 14 14 14 14 12 10 11 9 6 6 7 8 8 7 7 9 11 10 9 10 10 9 9 9 7 7 6 6 6 6 6 6 6 6 6 7 7 7 7 7 7 7 8 8 9 9 9 9 10 10 10 10 11 11 11 11 11 12 12 13 14 15 15 16 17 18 18 19 19 19 20 21 21 19 18 17 17 16 16 15 15 14
14 14 13 13 14 14 14 15 14 12 11 9 7 7 8 9 9 9 8 9 10 11 11 11 11 10 10 9 8 7 6 6 6 6 6 7 7 6 6 7 7 7 7 7 8 8 8 8 9 9 9 9 9 9 9 9 9 9 8 9 9 9 10 11 12 13 14 15 17 17 17 17 18 20 20 20 20 19 17 17 16 16 16 15 15 14
14 14 14 13 14 13 13 14 14 14 13 11 10 11 10 10 10 10 9 9 10 11 11 11 10 10 10 9 8 8 7 7 6 6 7 7 7 6 6 7 8 8 7 7 8 8 8 8 8 9 9 9 9 9 9 8 8 8 7 6 6 7 8 8 10 11 12 13 15 17 16 15 17 19 19 19 18 18 17 16 16 16 16 16 15 14
13 14 14 13 13 13 13 12 12 13 13 12 11 11 12 11 11 10 10 10 10 10 10 10 10 10 9 9 8 8 8 7 7 7 7 7 7 7 7 7 8 7 7 7 8 8 8 8 9 8 8 8 9 8 8 8 7 7 6 5 4 5 6 7 9 10 11 11 13 15 16 16 16 18 18 17 17 17 17 16 16 16 16 16 16 15
13 14 14 14 14 13 12 12 13 12 12 11 10 9 10 11 10 9 9 9 10 10 10 10 10 10 10 9 9 9 8 7 7 7 7 7 7 8 8 8 8 7 7 7 8 8 8 8 9 9 8 8 8 7 7 7 7 6 5 4 3 3 4 5 7 9 10 11 11 13 15 16 17 17 16 16 16 16 16 16 15 16 16 16 15 15
15 15 15 14 14 14 13 13 13 12 10 10 9 9 10 11 10 10 9 8 10 12 11 10 10 10 11 11 11 11 10 8 7 8 8 8 8 8 8 8 8 7 7 8 8 7 7 8 9 9 8 8 7 7 7 7 7 6 5 4 3 2 4 4 4 6 8 9 10 12 14 15 16 16 15 16 16 16 16 15 15 15 16 16 15 14
15 15 15 14 13 13 12 11 12 13 11 9 9 9 10 11 12 12 11 9 10 12 12 11 11 11 11 12 13 13 13 10 9 9 9 9 9 9 8 9 8 8 7 8 7 7 7 8 8 8 7 7 7 7 7 6 6 5 4 4 3 1 3 4 4 5 6 7 9 10 12 14 16 16 15 15 15 15 16 16 15 15 15 15 15 15
13 14 15 15 13 12 11 11 12 13 12 10 10 10 9 10 12 13 12 10 10 12 12 11 11 11 12 13 13 14 15 13 12 11 10 10 10 9 9 9 8 8 7 8 7 7 8 8 7 7 7 6 7 7 7 6 5 4 3 3 3 1 2 3 4 5 6 7 8 10 12 14 15 16 16 16 16 16 16 16 16 16 16 15 15 15
11 12 13 13 12 12 12 11 10 11 10 9 9 9 8 8 10 12 12 10 10 12 12 12 12 12 12 12 12 14 15 14 13 13 12 11 11 10 10 10 9 9 9 8 8 8 8 8 7 7 7 6 6 7 7 6 5 4 3 3 3 2 1 1 2 3 5 6 8 9 11 12 14 15 15 16 16 16 16 16 16 16 15 14 14 14
9 11 12 11 11 11 11 9 8 9 9 8 9 8 7 7 9 11 10 8 9 11 11 11 12 12 11 12 12 13 13 13 14 13 13 12 11 10 10 10 10 10 10 9 9 9 9 8 7 7 7 7 7 7 7 6 5 5 4 4 3 2 2 2 1 2 3 4 6 7 8 10 12 12 13 13 14 14 14 13 13 13 12 12 12 12
8 9 10 10 10 10 9 8 7 8 7 7 8 8 7 8 9 8 8 8 9 9 8 9 10 10 10 11 11 12 12 12 13 13 12 12 12 11 11 10 10 10 10 10 10 10 9 9 8 7 7 7 7 8 8 7 6 5 5 5 4 4 3 3 3 3 3 3 4 6 7 8 9 10 10 11 11 11 11 11 11 11 11 11 11 11
8 8 9 10 9 9 9 8 7 7 6 7 8 7 6 7 8 6 7 9 8 6 5 6 7 7 7 8 8 9 10 11 11 12 12 12 12 12 12 12 11 11 11 10 10 10 10 10 9 9 9 8 8 8 8 7 6 6 6 5 5 5 5 4 4 4 4 5 5 5 6 7 8 8 8 9 9 10 10 10 10 10 10 10 10 10
7 8 8 8 8 7 7 7 7 6 4 5 6 6 5 6 7 7 8 7 5 4 4 4 5 6 7 7 6 7 7 8 9 10 10 11 11 12 12 12 12 11 11 10 10 10 10 10 10 10 10 10 9 9 9 8 7 7 7 6 6 7 6 6 5 5 5 6 6 6 6 7 7 8 8 8 8 9 10 10 10 10 10 10 10 10
6 7 8 8 7 6 5 5 5 5 3 2 3 4 4 4 5 6 6 6 5 5 5 5 5 6 6 6 6 6 6 6 6 7 8 8 9 10 11 11 11 11 10 10 10 10 10 10 10 10 10 10 10 10 9 8 7 7 7 7 7 7 7 7 7 6 6 6 6 7 7 8 8 8 8 8 8 8 9 9 10 10 10 10 10 11
5 7 8 7 6 6 6 6 6 5 3 2 2 3 2 2 3 4 4 5 5 6 6 6 6 6 6 6 6 6 6 6 6 6 6 7 8 8 8 9 9 10 10 10 10 10 10 10 10 11 10 10 10 10 9 9 8 7 7 8 8 8 8 8 8 8 8 8 8 8 8 8 8 8 8 9 9 9 9 9 10 10 11 11 11 12
8 8 8 8 9 8 7 7 6 5 4 3 2 2 2 1 2 3 3 4 5 5 6 6 6 6 7 7 7 7 7 8 7 7 7 8 8 8 7 8 8 8 9 10 10 10 10 10 10 10 10 10 10 10 10 9 9 8 8 8 8 8 8 8 8 8 9 9 9 9 9 9 9 9 9 9 10 10 10 11 11 11 12 12 12 12
9 8 7 8 8 7 6 6 6 5 5 4 3 2 2 1 1 1 2 3 4 5 5 6 6 7 7 7 8 8 9 10 10 9 9 9 9 9 9 9 9 9 10 10 11 11 11 10 10 10 10 10 10 10 10 10 10 9 9 9 9 9 9 9 9 9 9 9 10 10 10 10 10 10 10 11 11 11 11 12 12 13 13 13 13 13
7 7 7 7 7 7 7 7 6 5 5 4 3 2 1 1 1 1 2 3 3 4 4 5 6 6 7 7 8 9 10 11 12 11 11 11 11 11 11 11 11 11 10 11 11 11 11 11 11 11 11 11 11 10 10 10 11 10 10 10 9 9 9 9 9 10 10 10 10 11 11 10 10 10 10 10 11 11 12 12 12 13 13 14 14 14
7 8 8 8 8 8 7 6 5 5 4 3 3 2 1 1 1 2 2 3 3 4 4 5 5 6 7 7 8 9 10 11 12 13 12 12 12 12 12 12 12 12 12 12 12 12 12 12 12 11 11 10 10 10 10 10 10 11 11 11 11 11 11 10 10 10 10 11 11 11 11 12 11 11 11 10 10 11 11 11 12 12 13 14 14 15
7 7 7 7 6 5 5 4 3 2 2 2 2 2 2 1 1 2 3 3 4 4 5 5 6 6 7 8 8 9 9 10 11 12 12 12 12 13 13 13 13 13 13 13 13 12 12 12 12 12 11 10 10 10 10 10 10 11 11 11 11 11 11 11 11 11 11 11 11 11 11 12 12 12 12 11 11 10 10 10 11 11 12 13 14 14
5 5 5 5 5 5 5 4 3 2 2 2 2 1 1 1 1 2 3 4 4 5 6 6 7 7 8 9 9 10 10 11 11 11 11 12 12 13 14 14 15 14 14 14 14 13 13 13 13 12 12 13 12 12 12 12 12 12 12 12 12 11 11 11 11 11 11 11 11 11 11 12 12 12 12 13 13 12 12 11 12 12 12 13 13 13
Wind_Direction
224 228 229 230 231 230 230 232 235 239 240 249 262 259 251 248 245 244 236 236 252 262 266 266 264 261 259 257 254 250 249 250 248 242 247 251 247 247 244 241 244 245 245 245 245 246 243 240 239 239 236 235 238 241 239 235 233 231 224 217 214 213 212 211 213 214 213 212 214 220 223 223 226 229 233 237 236 234 234 232 230 229 224 223 225 229
225 229 231 230 231 232 232 234 237 241 246 257 266 259 249 248 250 249 243 241 246 258 269 270 268 264 260 258 259 258 255 253 248 242 245 249 247 246 243 242 243 245 248 247 245 245 245 241 238 239 238 236 239 240 239 236 233 229 221 214 212 212 212 211 212 212 211 213 217 221 223 225 229 233 236 237 236 235 232 229 227 223 219 221 225 230
225 231 233 232 232 234 236 236 236 241 248 257 257 250 250 252 253 251 248 246 248 260 271 271 270 267 262 260 258 257 256 255 251 242 239 244 245 243 241 240 241 244 243 239 240 243 244 239 236 239 239 238 240 238 237 235 230 226 220 214 212 211 211 210 210 210 211 214 219 224 227 228 231 236 237 236 234 231 231 228 222 217 216 217 222 228
226 231 232 233 233 234 236 237 238 242 245 248 247 244 249 252 254 254 246 244 253 268 274 273 274 270 267 265 259 256 254 254 255 249 239 240 243 242 240 238 238 239 236 234 239 243 243 241 237 236 237 240 240 236 234 231 227 223 219 215 210 208 208 209 210 212 213 215 220 226 231 232 234 235 234 232 230 228 229 225 216 213 214 215 219 226
229 231 231 230 232 233 234 235 237 242 243 243 242 244 249 250 253 255 252 252 259 269 272 271 274 270 265 265 261 259 254 250 253 253 248 245 247 245 238 236 237 236 235 236 239 241 242 242 240 236 237 239 238 234 231 227 224 220 216 211 207 205 208 211 213 213 215 218 222 227 231 232 234 233 230 230 230 228 227 222 217 216 216 215 219 224
232 238 236 229 229 229 231 234 233 237 244 246 243 243 249 254 257 257 259 263 260 261 262 260 267 270 263 260 258 258 256 252 250 251 252 250 249 246 237 235 237 234 235 237 238 239 240 241 240 238 236 236 235 232 229 224 219 215 212 209 208 211 212 213 216 217 220 223 226 230 231 231 231 231 231 230 227 225 223 219 216 216 216 216 219 220
233 240 237 231 233 227 227 236 235 236 244 248 245 243 246 251 258 259 260 264 261 262 265 259 264 273 268 261 258 255 254 253 251 249 250 250 251 249 237 231 233 234 236 239 239 239 240 239 239 240 238 236 235 230 225 220 214 210 208 208 211 216 218 219 221 223 225 229 232 234 232 230 229 229 228 227 223 220 219 215 212 213 214 215 216 215
230 235 231 229 236 232 230 237 236 235 241 245 246 246 246 247 252 254 254 257 260 266 269 264 265 271 270 266 264 262 257 252 250 246 245 247 250 250 242 231 231 235 236 238 240 240 242 240 237 238 237 235 237 233 227 223 219 217 214 213 215 221 227 228 226 227 230 232 234 233 230 228 227 225 223 222 221 218 216 212 211 214 215 214 216 215
225 232 231 224 230 235 235 238 237 235 240 245 244 246 253 254 254 256 255 255 257 261 264 262 261 264 266 265 263 264 261 252 248 247 247 245 245 249 248 235 230 235 237 235 239 242 242 238 235 235 234 236 241 240 235 231 230 230 227 222 221 223 229 227 220 224 231 233 234 231 228 229 227 223 221 221 221 218 215 213 213 215 215 214 216 216
225 230 234 229 231 238 237 238 238 236 240 245 244 249 259 262 260 260 259 255 254 255 258 258 256 259 263 261 259 258 259 258 250 246 249 250 248 253 256 242 230 234 239 237 240 243 240 237 235 235 236 239 241 242 243 238 231 228 227 225 222 221 223 223 217 223 232 234 234 230 228 228 225 223 223 222 219 217 215 214 213 215 216 216 217 217
232 229 234 235 234 238 239 238 239 238 241 243 245 252 257 255 253 257 258 256 256 255 256 256 253 257 260 259 260 255 253 260 250 240 244 253 259 261 266 258 232 230 240 241 241 242 239 238 238 236 237 238 238 239 242 239 228 222 222 221 220 220 223 231 236 236 236 236 235 232 229 225 223 223 223 221 219 217 216 214 213 215 217 217 218 218
236 233 232 235 235 237 239 239 238 239 240 240 244 249 252 250 248 250 251 247 251 256 257 256 251 251 256 260 263 252 242 247 246 244 248 254 263 262 260 262 241 232 241 243 241 242 241 241 239 238 237 237 237 236 235 234 227 222 221 219 219 223 227 237 243 239 236 236 237 233 228 224 223 223 222 220 218 217 216 213 212 214 215 216 217 219
232 234 231 232 235 236 237 237 236 237 236 237 240 241 245 249 245 244 245 242 247 253 254 256 253 250 252 260 263 249 240 245 246 250 254 256 264 264 260 262 251 241 245 249 248 245 243 241 239 240 239 237 239 236 230 229 227 225 225 223 224 225 230 239 240 235 231 230 233 231 227 225 223 222 221 218 216 215 214 211 209 212 214 215 216 219
228 234 231 228 231 232 232 233 234 234 232 233 235 234 237 243 241 240 241 243 249 252 252 255 253 249 248 252 255 248 248 254 254 258 261 260 263 263 263 265 257 251 255 260 259 251 247 246 244 244 243 241 240 234 227 225 225 226 226 227 229 228 232 239 233 226 223 223 228 230 227 225 222 221 219 217 215 214 211 208 207 211 213 213 214 216
227 233 232 229 229 228 229 232 235 235 232 232 235 236 236 238 240 241 241 244 251 257 261 259 253 247 245 244 247 250 254 259 261 265 265 264 265 262 262 263 260 260 263 266 264 255 249 249 247 246 247 246 241 231 226 224 224 225 225 227 230 230 234 240 231 220 216 218 225 228 226 224 221 219 216 215 214 209 205 204 206 210 212 213 213 214
230 235 232 229 229 227 227 231 234 236 236 233 233 235 236 237 239 242 246 250 257 261 259 254 252 248 242 242 248 254 258 260 263 268 269 268 268 265 264 264 261 261 262 263 263 260 255 250 246 246 246 244 237 229 225 225 225 225 225 227 230 231 233 236 232 223 218 221 225 224 222 220 220 218 214 213 211 205 202 202 205 208 211 212 212 212
229 236 231 224 227 230 229 229 230 233 236 234 231 234 236 236 237 241 246 248 251 255 251 246 246 239 233 242 254 257 261 264 267 271 273 272 271 268 265 266 264 262 263 264 263 263 262 255 247 244 242 236 232 228 226 224 222 222 224 226 228 229 229 231 231 227 225 226 226 223 220 218 219 216 213 212 208 203 201 202 205 208 209 211 210 210
227 235 233 226 227 229 228 227 229 232 234 234 233 235 234 233 235 238 242 242 242 246 248 244 242 237 238 246 254 261 267 271 273 275 274 271 271 270 266 267 267 265 266 269 269 267 263 257 250 244 238 232 227 227 226 222 220 221 224 225 225 226 227 229 229 229 229 227 225 223 220 219 218 215 213 211 205 200 200 203 207 208 208 209 208 210
226 233 234 229 228 226 224 226 230 230 231 233 236 236 232 230 232 232 234 240 242 243 245 244 243 248 257 255 253 258 265 268 273 278 275 269 268 267 267 273 276 274 271 272 276 273 261 252 246 242 238 233 226 222 220 219 219 221 224 225 226 228 228 228 229 230 229 225 223 223 221 221 219 215 213 209 202 200 201 204 207 208 207 207 206 209
223 231 234 230 226 223 222 226 230 230 228 230 236 237 234 232 233 232 233 238 241 244 248 247 245 250 263 265 260 257 259 263 269 272 269 264 261 260 267 275 278 280 279 274 278 278 258 242 238 238 238 233 223 216 211 212 216 221 225 228 230 231 230 229 229 230 227 223 222 221 220 220 218 214 212 208 204 202 202 204 206 206 205 204 205 208
219 227 231 228 225 224 225 226 230 232 226 226 231 233 233 232 232 235 235 238 242 244 248 250 247 247 257 265 263 255 253 257 260 260 256 256 255 252 261 268 266 267 263 259 279 285 248 230 230 230 229 225 223 216 209 212 219 223 228 231 232 234 233 231 230 230 227 222 220 218 216 217 216 212 209 207 206 203 202 204 204 203 203 203 205 208
220 222 226 228 225 227 230 226 228 234 231 227 227 229 233 232 230 233 235 239 243 242 243 247 244 244 255 264 262 255 253 254 255 252 249 256 261 253 253 259 261 261 251 242 257 278 266 251 240 235 231 226 230 229 218 223 230 232 235 236 235 235 235 234 234 233 228 222 218 215 214 214 213 209 205 204 204 201 200 202 201 200 201 202 205 207
221 221 225 229 227 229 234 229 228 234 234 231 229 229 231 233 233 235 236 240 241 239 242 246 243 244 255 265 261 255 258 265 265 256 249 258 267 263 262 265 266 266 260 252 257 271 288 291 284 283 279 262 256 259 249 244 245 244 244 245 242 241 238 237 239 237 229 221 217 215 213 212 210 206 202 202 201 198 199 201 200 199 200 202 205 206
218 221 225 230 228 229 236 240 237 236 233 232 231 229 229 232 235 237 234 234 239 241 243 246 246 246 249 255 254 248 249 263 273 270 262 267 271 269 271 272 270 267 265 266 274 285 293 298 300 301 300 293 286 284 278 266 259 254 253 252 250 249 245 242 243 237 226 220 218 215 212 211 209 205 202 201 200 197 197 201 201 200 202 204 207 208
218 220 222 227 226 224 229 239 238 232 228 228 229 230 232 234 238 239 233 230 237 243 243 242 244 240 237 247 255 249 245 249 260 271 272 275 279 272 265 266 269 271 272 277 286 295 299 301 304 302 297 296 294 288 286 282 272 261 257 258 255 252 251 248 244 235 225 223 221 214 210 210 209 205 202 201 199 196 197 199 201 201 203 206 209 211
221 219 220 224 225 222 225 232 229 224 229 233 233 237 238 238 239 234 229 231 237 244 244 237 233 230 233 248 261 258 260 261 264 269 272 279 285 276 264 261 265 272 279 284 289 296 301 302 303 302 298 297 296 290 287 289 283 268 261 262 259 253 253 252 244 233 225 224 221 213 210 211 208 205 203 201 199 197 197 199 201 203 204 207 209 211
219 222 225 227 226 224 229 238 231 225 235 241 240 242 244 247 248 232 225 230 235 243 248 233 221 222 230 240 251 260 269 269 269 275 278 281 283 274 266 265 267 273 278 285 291 295 300 304 306 306 304 302 301 296 291 290 288 276 267 266 262 255 254 252 242 231 224 223 220 214 210 208 206 205 203 202 199 196 197 200 203 204 205 207 209 211
219 224 228 229 230 226 230 242 238 228 237 244 239 240 246 257 258 242 232 234 231 238 244 226 212 213 223 230 239 253 264 264 267 277 279 279 278 273 270 269 274 280 283 288 295 300 304 305 305 306 307 306 304 300 296 292 287 280 272 269 265 258 254 249 239 228 223 221 217 213 209 206 205 204 203 202 198 195 196 201 205 207 207 208 210 213
215 222 226 230 237 237 237 248 247 231 228 235 232 234 244 256 256 244 240 243 242 242 236 220 209 210 220 231 239 250 259 257 260 270 272 275 281 280 277 277 281 288 293 297 301 304 306 305 305 307 307 308 307 305 301 295 288 282 276 271 266 260 253 245 234 226 222 218 214 211 209 207 206 205 203 201 198 196 199 204 207 208 209 210 212 215
218 225 228 230 238 241 237 243 249 233 219 221 228 230 235 243 244 240 241 244 245 243 230 217 214 218 227 236 241 249 255 253 257 268 272 277 283 283 282 284 288 294 299 304 306 306 307 308 309 311 310 311 312 311 308 302 293 288 281 272 266 260 251 239 230 225 222 217 213 210 208 207 208 208 204 201 198 198 202 206 207 208 209 210 212 215
225 226 228 230 235 237 230 232 242 234 216 217 233 236 231 233 236 238 246 245 241 240 230 220 223 231 237 242 243 248 255 259 266 274 278 281 281 280 282 284 288 294 300 307 309 308 311 312 313 315 314 313 314 314 313 308 300 294 286 274 266 258 246 234 227 222 218 213 210 207 208 211 212 210 205 201 200 202 205 208 209 209 210 212 213 216
227 226 228 232 236 236 232 234 239 235 225 225 241 249 243 242 242 241 244 247 245 245 238 230 231 238 240 241 243 247 254 264 276 279 279 283 281 279 281 280 281 287 295 304 309 310 313 314 315 317 317 314 316 318 317 314 308 303 292 278 266 253 237 226 219 216 213 211 209 207 208 212 211 205 200 198 201 204 207 208 209 209 209 210 213 216
228 228 228 230 234 236 235 237 238 236 237 240 247 252 249 248 247 243 243 250 252 247 238 233 236 241 241 243 246 247 252 260 269 273 275 278 277 276 276 274 275 283 291 299 305 308 309 309 308 312 314 315 319 323 323 320 316 310 299 283 266 248 235 221 213 212 211 210 209 208 208 206 201 196 195 197 202 204 205 206 207 207 208 210 214 216
228 231 230 228 233 238 235 234 234 233 235 239 244 249 249 247 247 245 247 252 252 243 234 232 236 241 245 247 244 244 250 253 255 261 269 271 269 268 270 271 274 280 288 295 301 303 305 304 301 303 309 315 321 325 326 325 322 318 309 291 268 248 234 221 215 215 213 209 207 208 207 203 199 197 199 202 202 203 204 206 207 209 210 213 215 218
230 232 232 231 235 238 235 232 234 233 232 234 240 249 250 246 244 243 244 250 251 246 237 234 239 241 239 237 234 234 237 241 247 257 265 267 264 263 263 266 270 276 282 289 294 296 301 304 301 299 304 312 318 320 322 324 323 323 321 306 277 242 221 216 214 213 211 208 206 206 205 204 202 203 205 205 203 203 205 207 210 212 213 215 218 221
233 232 231 232 236 237 235 234 231 227 227 232 239 252 254 248 245 243 243 248 255 253 245 238 239 240 233 229 229 229 228 231 244 256 261 260 259 259 260 261 266 272 277 282 286 290 296 300 300 299 302 307 311 314 316 319 320 322 325 326 311 243 213 209 208 207 208 209 208 207 206 204 203 204 207 207 206 207 208 209 211 213 213 215 219 223
233 232 229 230 235 236 234 230 224 221 228 242 251 256 256 249 247 245 242 245 252 255 249 239 236 236 232 228 228 229 230 235 244 251 257 258 255 254 256 259 265 270 273 274 277 281 288 292 294 295 298 302 307 311 312 314 317 317 320 331 334 271 219 209 204 205 208 209 211 212 211 210 209 209 209 210 211 213 212 211 211 214 217 220 223 227
232 231 228 228 231 230 224 222 224 226 233 249 258 259 256 248 244 243 241 244 253 254 249 242 237 235 232 230 232 236 239 242 244 247 253 256 254 252 251 255 263 269 271 272 273 278 283 287 289 291 292 298 305 307 307 308 311 313 318 329 333 300 231 219 218 219 217 214 213 213 213 212 211 211 211 211 212 214 214 214 216 221 225 228 229 231
228 227 224 221 222 223 220 221 227 228 231 245 256 259 255 244 238 237 235 241 257 257 247 241 238 235 234 237 242 245 244 242 240 243 248 251 253 253 252 254 259 263 267 271 273 276 280 281 284 288 290 296 302 302 302 303 305 310 315 317 317 308 264 240 231 225 220 216 214 213 212 212 210 211 213 214 215 216 218 220 223 225 226 226 227 231
222 219 217 215 216 218 215 215 222 222 225 243 252 251 250 240 235 236 233 238 261 262 248 238 236 236 239 244 247 249 247 240 236 238 242 245 250 254 255 256 259 262 264 268 269 269 271 273 277 283 287 291 293 293 295 297 301 308 309 306 310 314 299 274 240 208 198 200 203 203 205 205 202 202 206 209 211 214 216 218 218 219 218 219 222 228
210 212 211 207 205 208 203 199 208 215 224 248 251 245 251 246 235 235 236 243 259 261 243 230 231 235 241 243 242 244 243 236 232 234 239 243 248 254 255 255 257 259 262 266 267 264 263 266 271 277 282 284 284 285 288 289 291 297 296 294 302 308 296 276 249 217 196 190 188 185 187 191 189 187 190 196 201 204 205 207 208 211 214 218 221 226
204 206 204 200 199 201 195 191 196 203 226 260 252 238 247 243 227 227 241 247 253 251 233 227 228 227 229 230 229 232 234 233 234 237 241 244 246 250 253 253 254 257 260 264 265 261 259 263 269 274 277 279 280 281 283 283 283 283 281 283 291 290 279 268 254 234 214 201 193 184 184 188 190 191 193 198 202 202 202 206 211 213 216 220 224 228
199 196 188 188 193 193 187 192 202 207 234 276 255 233 242 240 225 233 247 248 244 232 221 226 226 219 213 212 215 221 228 235 239 240 243 246 247 248 250 251 252 255 258 259 260 261 261 263 266 268 270 272 275 279 280 279 278 276 275 278 280 273 264 258 252 239 223 214 209 206 204 203 204 205 206 209 211 210 210 214 219 221 223 226 231 235
194 192 181 183 192 190 177 182 196 201 215 264 232 215 226 232 227 237 246 247 246 237 222 214 214 213 209 209 215 222 227 233 236 236 239 245 248 249 249 248 249 252 255 256 258 261 262 262 263 264 266 269 271 274 274 272 270 272 276 274 267 259 253 249 244 237 230 225 226 226 224 223 224 223 222 222 222 221 223 226 229 231 233 236 241 244
166 166 166 168 168 158 149 151 156 159 161 158 162 175 191 210 220 227 233 242 250 247 235 224 218 215 214 216 222 228 232 234 235 236 241 246 249 250 250 249 247 248 250 254 258 262 264 265 264 264 264 266 268 268 268 264 260 262 268 265 258 253 251 249 245 240 235 234 235 235 233 232 233 233 233 234 233 234 237 238 240 242 243 245 249 251
150 149 155 157 151 139 132 136 140 138 132 123 118 131 151 175 206 218 227 239 245 244 240 237 232 228 228 227 228 232 235 236 237 239 244 248 251 253 254 254 253 251 253 256 259 262 265 265 265 264 263 264 265 266 265 262 258 257 258 254 251 250 251 250 245 239 235 233 234 236 235 234 235 237 239 240 240 241 243 244 244 246 248 250 252 253
143 143 150 158 160 155 145 141 140 136 129 120 110 108 108 116 175 218 226 235 241 241 240 239 239 239 240 241 240 238 237 238 239 242 245 247 250 253 256 259 259 259 258 258 259 262 263 262 262 262 261 260 260 261 262 260 257 256 255 253 252 253 254 254 250 244 240 239 238 239 239 237 238 240 242 244 244 246 248 248 248 248 249 251 253 255
141 137 139 143 146 145 140 134 127 119 118 119 118 119 120 123 160 223 230 230 235 240 241 241 242 243 248 254 255 253 250 249 247 246 246 247 248 249 251 254 256 257 257 257 258 260 259 258 258 258 258 257 256 256 256 254 250 250 251 252 252 252 255 258 257 254 251 249 247 246 244 243 242 244 247 249 249 249 251 253 253 252 253 256 257 258
134 130 129 129 129 131 133 133 127 117 112 112 118 131 151 175 197 215 225 230 236 243 249 252 253 250 251 256 259 259 258 257 254 250 248 248 249 250 250 250 251 252 254 256 257 257 255 253 252 252 251 251 251 251 251 250 247 247 247 248 248 249 251 253 254 254 253 251 250 250 249 248 246 246 247 249 251 251 254 257 258 257 258 260 261 262
122 128 131 129 128 131 136 137 136 126 109 101 119 137 149 172 208 225 237 247 253 255 257 260 260 258 255 255 255 254 253 253 253 251 249 249 251 252 254 253 252 252 252 253 254 255 254 252 250 249 247 245 245 247 249 250 251 251 248 245 245 247 249 249 249 250 249 245 244 246 247 247 246 245 245 248 251 254 258 263 267 268 266 265 265 266
93 113 128 127 122 121 123 123 123 112 94 85 88 91 74 8 321 300 287 279 274 268 266 265 264 262 261 257 255 253 252 251 252 252 251 252 253 253 255 255 252 250 251 250 251 251 251 250 250 249 250 249 249 249 250 250 252 252 251 248 246 246 248 249 250 251 250 247 247 249 249 248 249 248 248 249 252 255 260 264 269 272 272 270 268 269